TimeCDT,TemperatureF,Dew PointF,Humidity,Sea Level PressureIn,VisibilityMPH,Wind Direction,Wind SpeedMPH,Gust SpeedMPH,PrecipitationIn,Events,Conditions,WindDirDegrees,DateUTC
12:53 AM,55.0,39.9,57,30.06,10.0,SE,5.8,-,N/A,,Clear,130,2013-04-07 05:53:00
1:53 AM,52.0,42.1,69,30.06,10.0,South,5.8,-,N/A,,Clear,170,2013-04-07 06:53:00
2:53 AM,57.0,43.0,59,30.05,10.0,SSW,8.1,-,N/A,,Clear,200,2013-04-07 07:53:00
3:53 AM,53.1,43.0,69,30.06,10.0,South,5.8,-,N/A,,Clear,180,2013-04-07 08:53:00
4:53 AM,53.1,43.0,69,30.08,10.0,South,4.6,-,N/A,,Clear,170,2013-04-07 09:53:00
5:53 AM,48.9,43.0,80,30.09,10.0,SSE,3.5,-,N/A,,Scattered Clouds,150,2013-04-07 10:53:00
6:53 AM,48.9,43.0,80,30.11,10.0,SE,6.9,-,N/A,,Mostly Cloudy,130,2013-04-07 11:53:00
7:53 AM,55.9,46.9,72,30.13,10.0,SSE,4.6,-,N/A,,Scattered Clouds,160,2013-04-07 12:53:00
8:53 AM,59.0,48.9,69,30.14,10.0,South,6.9,-,N/A,,Mostly Cloudy,190,2013-04-07 13:53:00
9:53 AM,62.1,50.0,65,30.14,10.0,SSW,4.6,-,N/A,,Mostly Cloudy,200,2013-04-07 14:53:00
10:53 AM,66.0,50.0,56,30.13,10.0,South,8.1,-,N/A,,Mostly Cloudy,190,2013-04-07 15:53:00
11:53 AM,70.0,50.0,49,30.10,10.0,South,16.1,20.7,N/A,,Mostly Cloudy,180,2013-04-07 16:53:00
12:53 PM,69.1,48.0,47,30.09,10.0,South,10.4,18.4,N/A,,Mostly Cloudy,190,2013-04-07 17:53:00
1:53 PM,71.1,50.0,47,30.07,10.0,SW,11.5,-,N/A,,Mostly Cloudy,220,2013-04-07 18:53:00
2:53 PM,73.0,50.0,44,30.05,10.0,SSW,11.5,-,N/A,,Mostly Cloudy,210,2013-04-07 19:53:00
3:53 PM,73.9,48.0,40,30.03,10.0,SW,10.4,-,N/A,,Scattered Clouds,220,2013-04-07 20:53:00
4:53 PM,73.0,48.0,41,30.02,10.0,SSW,6.9,-,N/A,,Mostly Cloudy,200,2013-04-07 21:53:00
5:53 PM,72.0,48.0,43,30.02,10.0,South,6.9,-,N/A,,Mostly Cloudy,190,2013-04-07 22:53:00
6:53 PM,69.1,52.0,54,30.00,10.0,South,5.8,-,N/A,,Mostly Cloudy,170,2013-04-07 23:53:00
7:53 PM,66.0,51.1,59,30.00,10.0,SSE,3.5,-,N/A,,Scattered Clouds,150,2013-04-08 00:53:00
8:53 PM,63.0,50.0,63,30.02,10.0,SSE,4.6,-,N/A,,Partly Cloudy,160,2013-04-08 01:53:00
9:53 PM,62.1,50.0,65,30.03,10.0,South,4.6,-,N/A,,Mostly Cloudy,190,2013-04-08 02:53:00
10:53 PM,59.0,48.9,69,30.03,10.0,SE,6.9,-,N/A,,Clear,140,2013-04-08 03:53:00
11:53 PM,55.9,50.0,80,30.01,10.0,SSE,5.8,-,N/A,,Clear,150,2013-04-08 04:53:00